Weather History for George, South Africa

Change the Weather History Date:

Friday, April 18, 2014

  Actual Average Record
Temperature  
Mean Temperature 64 °F -  
Max Temperature 73 °F 69 °F 96 °F (1998)
Min Temperature 55 °F 51 °F 48 °F (2007)
Degree Days  
Heating Degree Days 1    
Growing Degree Days 14 (Base 50)    
Moisture  
Dew Point 55 °F    
Average Humidity 67    
Maximum Humidity 88    
Minimum Humidity 38    
Precipitation  
Precipitation 0.00 in - - ()
Sea Level Pressure  
Sea Level Pressure 30.00 in    
Wind  
Wind Speed 6 mph ()    
Max Wind Speed 14 mph    
Max Gust Speed -    
Visibility 8.4 miles    
Events      
Averages and records for this station are not official NWS values.
T = Trace of Precipitation, MM = Missing Value Source: Averaged Metar Reports

Daily Weather History Graph

Daily Weather History Graph

Search for Another Location

Airport:

Trip Planner

Search our weather history database for the weather conditions in past years. The results will help you decide how hot, cold, wet, or windy it might be!

Date:

Astronomy

Apr. 18, 2014 Rise Set
Actual Time 6:55 AM SAST 6:03 PM SAST
Civil Twilight 6:29 AM SAST 6:29 PM SAST
Nautical Twilight 6:00 AM SAST 6:58 PM SAST
Astronomical Twilight 5:31 AM SAST 7:27 PM SAST
Moon 8:35 PM SAST (4/18) 9:53 AM SAST (4/18)
Length of Visible Light 11h 59m
Length of Day
11h 08m
Waning Gibbous, 89% of the Moon is Illuminated
Apr 18
Waning Gibbous
Apr 22
Last Quarter
Apr 29
New
May 7
First Quarter
May 14
Full

Hourly Weather History & Observations

Time (SAST) Temp. Dew Point Humidity Pressure Visibility Wind Dir Wind Speed Gust Speed Precip Events Conditions
1:00 AM 64.4 °F 46.4 °F 52% 29.89 in - North 3.5 mph - N/A   Clear
2:00 AM 67 °F 47 °F 38% 29.87 in 25 mi NE 5.8 mph - -  
3:00 AM 64.4 °F 48.2 °F 56% 29.86 in - Variable 1.2 mph - N/A   Clear
5:00 AM 59 °F 49 °F 59% 29.90 in 12 mi NW 5.8 mph - -   Scattered Clouds
5:00 AM 59.0 °F 48.2 °F 67% 29.89 in - NW 5.8 mph - N/A   Clear
6:00 AM 59.0 °F 46.4 °F 63% 29.92 in - West 5.8 mph - N/A   Clear
7:00 AM 59.0 °F 46.4 °F 63% 29.92 in - NW 6.9 mph - N/A   Clear
8:00 AM 61 °F 51 °F 60% 29.98 in 12 mi West 8.1 mph - -   Scattered Clouds
8:00 AM 60.8 °F 50.0 °F 68% 29.98 in - West 8.1 mph - N/A   Clear
9:00 AM 66.2 °F 53.6 °F 64% 29.98 in - WNW 6.9 mph - N/A   Clear
10:00 AM 71.6 °F 55.4 °F 57% 30.01 in - West 11.5 mph - N/A   Clear
11:00 AM 72 °F 57 °F 49% 30.02 in 12 mi SW 11.5 mph - -   Clear
11:00 AM 71.6 °F 57.2 °F 60% 30.01 in - SW 11.5 mph - N/A   Clear
12:00 PM 73.4 °F 59.0 °F 61% 30.01 in - SW 11.5 mph - N/A   Clear
1:00 PM 71.6 °F 60.8 °F 69% 30.01 in - South 10.4 mph - N/A   Clear
2:00 PM 69 °F 60 °F 67% 30.01 in 12 mi SSW 13.8 mph - -   Scattered Clouds
2:00 PM 69.8 °F 60.8 °F 73% 30.01 in 6.2 mi SSW 13.8 mph - N/A   Partly Cloudy
3:00 PM 69.8 °F 60.8 °F 73% 30.01 in 6.2 mi SSW 11.5 mph - N/A   Partly Cloudy
4:00 PM 69.8 °F 60.8 °F 73% 30.04 in 6.2 mi SW 8.1 mph - N/A   Partly Cloudy
5:00 PM 70 °F 57 °F 54% 30.03 in 12 mi SW 8.1 mph - -   Scattered Clouds
5:00 PM 69.8 °F 57.2 °F 64% 30.04 in 6.2 mi SW 8.1 mph - N/A   Partly Cloudy
6:00 PM 66.2 °F 59.0 °F 78% 30.04 in 6.2 mi SSW 6.9 mph - N/A   Partly Cloudy
7:00 PM 64.4 °F 60.8 °F 88% 30.06 in 6.2 mi SW 9.2 mph - N/A   Mostly Cloudy
8:00 PM 64 °F 59 °F 80% 30.10 in 12 mi West 8.1 mph - -   Partly Cloudy
8:00 PM 64.4 °F 60.8 °F 88% 30.09 in 6.2 mi West 6.9 mph - N/A   Scattered Clouds
9:00 PM 62.6 °F 59.0 °F 88% 30.12 in 6.2 mi WNW 6.9 mph - N/A   Mostly Cloudy
10:00 PM 64.4 °F 59.0 °F 83% 30.12 in 6.2 mi WNW 5.8 mph - N/A   Mostly Cloudy
11:00 PM 64.4 °F 59.0 °F 83% 30.15 in 6.2 mi WNW 4.6 mph - N/A   Mostly Cloudy